Powrót do katalogu

UWE-1

AktywnyKrótkofalarstwoSSO
NORAD 28892·PAYLOAD·🇩🇪 Germany

Wystrzelony Oct 27, 2005 z Plesetsk Cosmodrome

Loading…

Następne Przeloty (najbliższe 24 godziny)

TLE

ŚwieżeSource: Space-Track

Epoka: Sep 14, 2026, 08:51 UTC

1 28892U 05043C   26257.36938339  .00000918  00000-0  15359-3 0  9991
2 28892  98.3187  55.5263 0012502 289.2800  70.7054 14.72299342114880

Śledź UWE-1 w czasie rzeczywistym z AllMySat

Download on the App Store